Location: Unspecified
(42.3650°N, 71.1030°W)
Time: 10:51:23
(UTC+00:00)

Courier 1B - Pass Details

Date: 30 June 2024
Orbit: 962 x 1209 km, 28.3° (Epoch: 13 July)

Event Time Altitude Azimuth Distance (km) Brightness Sun altitude
Rises 05:18:19 0° 252° (WSW) 3,710 - -24.1°
Reaches altitude 10° 05:21:34 10° 237° (WSW) 2,795 - -24.0°
Maximum altitude 05:26:33 22° 190° (S) 2,119 - -23.9°
Drops below altitude 10° 05:31:44 10° 143° (SE) 2,924 - -23.7°
Sets 05:35:15 0° 129° (SE) 3,927 - -23.6°
